Weather reports worldwide

Advertisment
Edinburgh/Gogarbank, United Kingdom (3166): temperature & dewpoint: 06.11.2019 16:00:00 - 12.11.2019 16:00:00 (GMT)Edinburgh/Gogarbank, United Kingdom (3166): temperature -20cm & temperature -100cm: 06.11.2019 16:00:00 - 12.11.2019 16:00:00 (GMT)Edinburgh/Gogarbank, United Kingdom (3166): wind speed & gusts: 06.11.2019 16:00:00 - 12.11.2019 16:00:00 (GMT)Edinburgh/Gogarbank, United Kingdom (3166): wind direction: 06.11.2019 16:00:00 - 12.11.2019 16:00:00 (GMT)Edinburgh/Gogarbank, United Kingdom (3166): reduced air pressure: 06.11.2019 16:00:00 - 12.11.2019 16:00:00 (GMT)Edinburgh/Gogarbank, United Kingdom (3166): visibility: 06.11.2019 16:00:00 - 12.11.2019 16:00:00 (GMT)Edinburgh/Gogarbank, United Kingdom (3166): sunshine duration: 06.11.2019 16:00:00 - 12.11.2019 16:00:00 (GMT)Edinburgh/Gogarbank, United Kingdom (3166): precipitation: 06.11.2019 16:00:00 - 12.11.2019 16:00:00 (GMT)
Date & Time tt [°C] td [°C] tt -20cm [°C] tt -100cm [°C] ff [km/h] ff [kn] fx [km/h] fx [kn] dd ppp [hPa] vv [km] sd [min] rr [mm]
12.11.2019 16:00:00 - - - - - - - - - - - - -
12.11.2019 15:00:00 7,6 3,1 - - 16 9 - - NNW 996,3 50 0 0,0
12.11.2019 14:00:00 7,3 3,7 - - 16 9 - - NW 995,4 50 0 0,0
12.11.2019 13:00:00 7,6 4,0 - - 24 13 - - NW 994,6 50 0 0,0
12.11.2019 12:00:00 8,3 4,0 - - 26 14 - - NNW 993,4 45 0 0,0
12.11.2019 11:00:00 7,9 4,0 - - 24 13 - - NNW 992,8 45 0 0,0
12.11.2019 10:00:00 7,3 3,9 - - 22 12 - - NW 991,8 50 0 0,0
12.11.2019 09:00:00 5,6 3,8 8,4 9,7 18 10 - - WNW 991,1 50 0 0,0
12.11.2019 08:00:00 4,8 3,7 - - 13 7 - - WNW 990,2 35 0 0,2
12.11.2019 07:00:00 4,4 2,8 - - 15 8 - - W 989,2 14 0 0,2
12.11.2019 06:00:00 4,0 2,0 - - 13 7 - - W 988,7 50 0 0,0
12.11.2019 05:00:00 3,0 1,6 - - 13 7 - - WSW 988,2 50 0 0,0
12.11.2019 04:00:00 3,0 1,6 - - 15 8 - - WSW 988,1 50 0 0,0
12.11.2019 03:00:00 3,2 2,0 - - 11 6 - - WSW 988,4 50 0 0,0
12.11.2019 02:00:00 3,8 2,4 - - 9 5 - - W 988,7 50 0 0,0
12.11.2019 01:00:00 4,5 3,1 - - 9 5 - - W 988,6 50 0 0,0
12.11.2019 00:00:00 4,6 2,8 - - 13 7 - - W 988,7 50 - 0,0
11.11.2019 23:00:00 5,2 3,3 - - 13 7 - - W 989,0 50 0 0,0
11.11.2019 22:00:00 5,1 3,2 - - 22 12 - - W 989,0 50 0 0,0
11.11.2019 21:00:00 5,2 3,6 - - 24 13 - - WSW 989,4 23 0 0,0
11.11.2019 20:00:00 5,3 3,1 - - 24 13 - - W 989,5 50 0 0,2
11.11.2019 19:00:00 5,4 3,5 - - 22 12 - - WSW 989,7 30 0 0,2
11.11.2019 18:00:00 5,4 3,4 - - 22 12 - - WSW 989,8 50 0 0,0
11.11.2019 17:00:00 5,6 3,3 - - 18 10 - - WSW 989,9 50 0 0,0
11.11.2019 16:00:00 5,7 3,6 - - 18 10 - - W 990,1 50 0 0,0
11.11.2019 15:00:00 6,0 4,2 - - 18 10 - - W 990,0 50 0 0,0
11.11.2019 14:00:00 5,2 3,8 - - 15 8 - - W 990,3 35 0 0,2
11.11.2019 13:00:00 4,8 3,5 - - 21 11 - - W 990,2 14 0 0,4
11.11.2019 12:00:00 5,1 4,0 - - 31 17 48 26 W 989,0 11 0 0,4
11.11.2019 11:00:00 5,5 4,0 - - 18 10 - - SW 987,9 30 0 0,0
11.11.2019 10:00:00 5,8 4,0 - - 26 14 - - SW 988,7 9 0 0,2
11.11.2019 09:00:00 6,2 3,6 8,4 10,0 26 14 - - SW 990,0 14 0 0,0
11.11.2019 08:00:00 5,9 3,0 - - 22 12 46 25 WSW 990,8 50 0 0,0
11.11.2019 07:00:00 5,9 4,1 - - 21 11 - - WSW 991,7 29 0 0,0
11.11.2019 06:00:00 5,6 4,4 - - 16 9 - - SW 992,0 35 0 0,4
11.11.2019 05:00:00 4,1 2,9 - - 8 4 - - SSW 992,5 17 0 0,4
11.11.2019 04:00:00 3,9 1,8 - - 5 3 - - S 993,3 50 0 0,0
11.11.2019 03:00:00 3,8 1,9 - - 8 4 - - SSE 994,4 25 0 0,2
11.11.2019 02:00:00 4,0 2,0 - - 15 8 - - ESE 995,8 45 0 0,0
11.11.2019 01:00:00 3,3 2,3 - - 11 6 - - ESE 997,5 45 0 0,4
11.11.2019 00:00:00 3,2 2,3 - - 13 7 - - ESE 999,9 19 - 1,0
10.11.2019 23:00:00 3,8 2,3 - - 11 6 - - SE 1001,9 12 0 0,2
10.11.2019 22:00:00 3,4 1,7 - - 11 6 - - ESE 1003,7 30 0 0,2
10.11.2019 21:00:00 3,8 1,0 - - 11 6 - - ESE 1005,9 50 0 0,0
10.11.2019 20:00:00 2,8 1,3 - - 9 5 - - SE 1008,2 40 0 0,0
10.11.2019 19:00:00 2,4 1,0 - - 5 3 - - ESE 1009,5 29 0 0,0
10.11.2019 18:00:00 2,5 0,6 - - 4 2 - - SSW 1011,0 45 0 0,0
10.11.2019 17:00:00 2,5 0,3 - - 2 1 - - SSE 1012,1 45 0 0,0
10.11.2019 16:00:00 3,7 0,7 - - 8 4 - - ESE 1012,7 45 0 0,0
10.11.2019 15:00:00 4,5 0,3 - - 4 2 - - NNE 1013,9 40 12 0,0
10.11.2019 14:00:00 4,3 -0,3 - - 2 1 - - SSW 1015,5 50 0 0,0
10.11.2019 13:00:00 3,9 -0,4 - - 4 2 - - WSW 1016,3 45 0 0,0
10.11.2019 12:00:00 3,4 -0,4 - - 9 5 - - W 1016,8 45 0 0,0
10.11.2019 11:00:00 2,8 -0,3 - - 4 2 - - WSW 1017,0 40 0 0,0
10.11.2019 10:00:00 1,8 -0,8 - - 4 2 - - WSW 1018,0 50 0 0,0
10.11.2019 09:00:00 1,1 -1,5 8,7 10,0 11 6 - - SSW 1018,3 40 0 0,0
10.11.2019 08:00:00 0,5 -1,5 - - 8 4 - - SSW 1017,4 45 0 0,0
10.11.2019 07:00:00 0,4 -1,6 - - 9 5 - - SW 1016,8 40 0 0,0
10.11.2019 06:00:00 -0,1 -1,9 - - 5 3 - - S 1016,4 45 0 0,0
10.11.2019 05:00:00 0,1 -1,6 - - 9 5 - - SW 1016,0 40 0 0,0
10.11.2019 04:00:00 -0,5 -2,3 - - 8 4 - - SW 1015,3 45 0 0,0
10.11.2019 03:00:00 0,3 -2,2 - - 5 3 - - W 1015,0 50 0 0,0
10.11.2019 02:00:00 2,4 -1,5 - - 8 4 - - N 1014,1 50 0 0,0
10.11.2019 01:00:00 4,0 -0,6 - - 13 7 - - NNE 1014,0 50 0 0,0
10.11.2019 00:00:00 4,1 0,2 - - 11 6 - - N 1013,5 50 - 0,0
09.11.2019 23:00:00 3,9 0,9 - - 11 6 - - NNE 1012,7 50 0 0,0
09.11.2019 22:00:00 3,0 2,0 - - 5 3 - - S 1011,7 40 0 0,2
09.11.2019 21:00:00 2,2 1,4 - - 4 2 - - W 1011,0 13 0 0,0
09.11.2019 20:00:00 3,0 1,8 - - 4 2 - - NNW 1010,2 50 0 0,2
09.11.2019 19:00:00 3,4 1,6 - - 8 4 - - NNE 1009,9 50 0 0,0
09.11.2019 18:00:00 3,9 1,2 - - 18 10 - - ESE 1008,9 16 0 0,0
09.11.2019 17:00:00 4,6 0,5 - - 13 7 - - E 1008,1 50 0 0,0
09.11.2019 16:00:00 5,5 0,5 - - 13 7 - - E 1007,2 45 0 0,0
09.11.2019 15:00:00 6,0 -0,8 - - 9 5 - - E 1006,6 50 54 0,0
09.11.2019 14:00:00 5,7 -0,8 - - 9 5 - - E 1006,4 45 36 0,0
09.11.2019 13:00:00 6,3 -0,4 - - 16 9 - - ESE 1006,3 45 60 0,0
09.11.2019 12:00:00 5,1 -0,3 - - 9 5 - - E 1006,3 45 36 0,0
09.11.2019 11:00:00 4,0 -1,1 - - 18 10 - - E 1006,5 45 6 0,2
09.11.2019 10:00:00 3,6 -1,0 - - 16 9 - - ESE 1006,8 40 18 0,0
09.11.2019 09:00:00 1,2 -1,1 8,9 10,2 8 4 - - E 1007,1 50 0 0,0
09.11.2019 08:00:00 0,7 -1,1 - - 11 6 - - E 1007,0 50 0 0,0
09.11.2019 07:00:00 1,0 -0,6 - - 11 6 - - E 1007,6 50 0 0,0
09.11.2019 06:00:00 -1,9 -2,3 - - 2 1 - - SSW 1008,0 29 0 0,0
09.11.2019 05:00:00 -2,0 -2,4 - - 2 1 - - W 1008,3 17 0 0,0
09.11.2019 04:00:00 -1,7 -1,9 - - 5 3 - - ESE 1008,8 21 0 0,0
09.11.2019 03:00:00 -2,1 -2,4 - - 2 1 - - ENE 1009,7 13 0 0,0
09.11.2019 02:00:00 -2,0 -2,3 - - 4 2 - - W 1010,6 13 0 0,0
09.11.2019 01:00:00 -2,2 -2,6 - - 2 1 - - E 1011,8 10 0 0,0
09.11.2019 00:00:00 -1,2 -1,4 - - 4 2 - - SW 1012,6 11 - 0,0
08.11.2019 23:00:00 -1,4 -1,8 - - 2 1 - - SW 1012,4 13 0 0,0
08.11.2019 22:00:00 -1,3 -1,9 - - 4 2 - - WSW 1013,1 20 0 0,0
08.11.2019 21:00:00 -0,2 -0,8 - - 4 2 - - SW 1013,4 18 0 0,0
08.11.2019 20:00:00 0,4 -0,6 - - 4 2 - - SSW 1013,2 19 0 0,0
08.11.2019 19:00:00 1,5 0,1 - - 2 1 - - ENE 1013,5 35 0 0,0
08.11.2019 18:00:00 2,7 0,4 - - 2 1 - - W 1013,8 40 0 0,0
08.11.2019 17:00:00 4,5 1,1 - - 5 3 - - NW 1013,5 45 0 0,0
08.11.2019 16:00:00 5,6 1,5 - - 4 2 - - N 1013,1 45 42 0,0
08.11.2019 15:00:00 5,6 1,2 - - 4 2 - - NNE 1013,0 50 12 0,0
08.11.2019 14:00:00 5,7 1,1 - - 5 3 - - N 1013,1 35 6 0,0
08.11.2019 13:00:00 6,0 0,7 - - 5 3 - - NW 1013,1 45 42 0,0
08.11.2019 12:00:00 4,7 0,1 - - 5 3 - - WNW 1013,3 50 18 0,0
08.11.2019 11:00:00 3,5 0,4 - - 5 3 - - WSW 1013,6 45 6 0,0
08.11.2019 10:00:00 2,3 -1,0 - - 5 3 - - SW 1012,9 27 48 0,0
08.11.2019 09:00:00 1,1 -1,2 9,2 10,2 8 4 - - WSW 1012,8 30 48 0,0
08.11.2019 08:00:00 -0,3 -1,8 - - 5 3 - - SW 1012,4 45 0 0,0
08.11.2019 07:00:00 0,0 -1,6 - - 2 1 - - W 1011,6 29 0 0,0
08.11.2019 06:00:00 1,0 -1,7 - - 2 1 - - NNW 1011,4 50 0 0,0
08.11.2019 05:00:00 1,9 -1,1 - - 5 3 - - WNW 1011,1 50 0 0,0
08.11.2019 04:00:00 2,5 -0,4 - - 5 3 - - N 1010,7 50 0 0,0
08.11.2019 03:00:00 2,7 0,0 - - 8 4 - - N 1010,3 50 0 0,0
08.11.2019 02:00:00 4,1 1,0 - - 13 7 - - N 1009,6 45 0 0,0
08.11.2019 01:00:00 4,1 0,7 - - 15 8 - - NNE 1009,0 45 0 0,0
08.11.2019 00:00:00 4,5 0,4 - - 15 8 - - NNE 1008,4 50 - 0,0
07.11.2019 23:00:00 5,1 2,1 - - 22 12 - - NE 1007,6 40 0 0,0
07.11.2019 22:00:00 4,6 2,0 - - 16 9 - - NNE 1007,2 45 0 0,2
07.11.2019 21:00:00 5,2 2,7 - - 16 9 - - NNE 1006,5 16 0 0,0
07.11.2019 20:00:00 5,1 2,4 - - 22 12 46 25 NNE 1005,7 50 0 0,0
07.11.2019 19:00:00 5,2 3,7 - - 21 11 - - NE 1004,7 40 0 0,6
07.11.2019 18:00:00 5,9 2,9 - - 21 11 54 29 NE 1003,8 50 0 0,0
07.11.2019 17:00:00 7,0 3,8 - - 28 15 55 30 NE 1002,6 21 0 0,0
07.11.2019 16:00:00 7,8 3,0 - - 34 18 54 29 ENE 1001,5 30 0 0,0
07.11.2019 15:00:00 8,1 2,9 - - 29 16 55 30 ENE 1000,7 45 0 0,0
07.11.2019 14:00:00 8,2 4,7 - - 34 18 48 26 ENE 999,8 24 0 0,0
07.11.2019 13:00:00 7,7 4,4 - - 28 15 52 28 ENE 999,3 30 0 0,4
07.11.2019 12:00:00 7,5 5,5 - - 18 10 - - ENE 998,7 8 0 0,6
07.11.2019 11:00:00 7,1 5,0 - - 21 11 - - ENE 998,3 13 0 0,0
07.11.2019 10:00:00 6,8 5,0 - - 11 6 - - ENE 997,7 40 0 0,4
07.11.2019 09:00:00 6,4 4,7 9,5 10,4 13 7 - - ENE 997,1 40 0 0,4
07.11.2019 08:00:00 6,3 4,8 - - 13 7 - - E 996,5 45 0 0,0
07.11.2019 07:00:00 5,6 4,7 - - 9 5 - - ENE 996,0 45 0 0,2
07.11.2019 06:00:00 5,7 4,2 - - 13 7 - - ENE 995,7 17 0 0,0
07.11.2019 05:00:00 4,7 3,7 - - 4 2 - - ENE 995,7 35 0 0,0
07.11.2019 04:00:00 4,8 3,5 - - 5 3 - - ESE 995,8 45 0 0,0
07.11.2019 03:00:00 4,7 3,1 - - 5 3 - - E 995,8 40 0 0,0
07.11.2019 02:00:00 4,5 3,0 - - 9 5 - - ENE 996,0 30 0 0,0
07.11.2019 01:00:00 4,9 3,1 - - 11 6 - - E 996,4 35 0 0,0
07.11.2019 00:00:00 5,0 3,2 - - 11 6 - - E 996,7 35 - 0,0
06.11.2019 23:00:00 4,7 3,2 - - 8 4 - - E 997,1 35 0 0,0
06.11.2019 22:00:00 4,7 3,0 - - 11 6 - - E 997,5 45 0 0,2
06.11.2019 21:00:00 4,9 3,3 - - 11 6 - - E 997,8 50 0 0,0
06.11.2019 20:00:00 5,2 3,9 - - 9 5 - - E 998,3 30 0 0,0
06.11.2019 19:00:00 5,3 4,2 - - 9 5 - - E 998,6 30 0 0,2
06.11.2019 18:00:00 5,7 3,9 - - 11 6 - - E 999,1 17 0 0,0
06.11.2019 17:00:00 6,0 3,9 - - 11 6 - - E 999,4 45 0 0,0
06.11.2019 16:00:00 6,2 3,4 - - 11 6 - - E 999,7 50 0 0,0

tt = temperature
td = dewpoint
tt -20cm = temperature -20cm
tt -100cm = temperature -100cm
ff = wind speed
fx = gusts
dd = wind direction
ppp = reduced air pressure
vv = visibility
sd = sunshine duration
rr = precipitation

Next stations